Location: Bottens
(46.6171°N, 6.6605°E)
Time: 20:11:12
(UTC+00:00)

USA 305 - Pass Details

Date: 20 June 2021
Orbit: 558 x 580 km, 54.0° (Epoch: 13 July)

Event Time Altitude Azimuth Distance (km) Brightness Sun altitude
Exits shadow 01:10:12 34° 191° (S) 925 3.4 -16.7°
Maximum altitude 01:11:33 49° 140° (SE) 729 3.2 -16.6°
Drops below altitude 10° 01:15:36 10° 65° (ENE) 1,852 6.2 -16.3°
Sets 01:17:54 0° 60° (ENE) 2,753 7.3 -16.2°
